GFSMA_prec_radar_276.txt.gz
Reflectivity
-20 -20 -20 -20 -20 -20 -20 -20 -20 -20 -20 -20 -20 -20 -20 -20 -20 -20 -20 -20 -20 -20 -20 -20 -20 -20 -20 -20 -20 -20 -20 -20 -20 -20 -20 -20 -20 -20 -20 -20 -20 -20 -20
-20 -20 -20 -20 -20 -20 -20 -20 -20 -20 -20 -20 -20 -20 -20 -20 -20 -20 -20 -20 -20 -20 -20 -20 -20 -20 -20 -20 -20 -20 -20 -20 -20 -20 -20 -20 -20 -20 -20 -20 -20 -20 -20
-20 -20 -20 -20 -20 -20 -20 -20 -20 -20 -20 -20 -20 -20 -20 -20 -20 -20 -20 -20 -20 -20 -20 -20 -20 -20 -20 -20 -20 -20 -20 -20 -20 -20 -20 -20 -20 -20 -20 -20 -20 -20 -20
-20 -20 -20 -20 -20 -20 -20 -20 -20 -20 -20 -20 -20 -20 -20 -20 -20 -20 -20 -20 -20 -20 -20 -20 -20 -20 -20 -20 -20 -20 -20 -20 -20 -20 -20 -20 -20 -20 -20 -20 -20 -20 -20
-20 -20 -20 -20 -20 -20 -20 -20 -20 -20 -20 -20 -20 -20 -20 -20 -20 -20 -20 -20 -20 -20 -20 -20 -20 -20 -20 -20 -20 -20 -20 -20 -20 -20 -20 -20 -20 -20 -20 -20 -20 -20 -20
-20 -20 -20 -20 -20 -20 -20 -20 -20 -20 -20 -20 -20 -20 -20 -20 -20 -20 -20 -20 -20 -20 -20 -20 -20 -20 -20 -20 -20 -20 -20 -20 -20 -15 -20 -20 -20 -20 -20 -20 -20 -20 -20
-9 -20 -20 -20 -20 -20 -20 -20 -20 -20 -20 -20 -20 -20 -20 -20 -20 -20 -20 -20 -20 -20 -20 -20 -20 -20 -20 -20 -20 -20 -20 -20 -20 -20 -20 -20 -20 -20 -20 -20 -20 -20 -20
-20 8 -20 -2 -20 -20 -20 -20 -20 -20 -20 -20 -20 -20 -20 -20 -20 -20 -20 -20 -20 -20 -20 -20 -20 -20 -20 -20 -20 -20 -20 -20 -20 -20 -20 -20 -20 -20 -20 -20 -20 -20 -20
-15 -15 12 13 -13 -20 -20 -20 -20 -20 -20 -20 -20 -20 -20 -20 -20 -20 -20 -20 -20 -20 -20 -20 -20 -20 -20 -20 -20 -20 -20 -20 -20 -20 -20 -20 -20 -20 -20 -20 -20 -20 -20
7 -6 24 -7 22 23 -7 6 -20 -20 -20 -20 -20 -20 -20 -20 -20 -20 -20 -20 -20 -20 -20 -20 -20 -20 -20 -20 -20 -20 -20 -20 -20 -20 -20 -20 -20 -20 -20 -20 -20 -20 -20
-5 -19 13 20 -17 9 31 29 6 16 16 9 -18 -20 -20 -20 -20 -20 -20 -20 -20 -20 -20 -20 -20 -20 -20 -20 -20 -20 -20 -20 -20 -20 -20 -20 -20 -20 -20 -20 -20 -20 -20
28 16 27 13 23 11 13 27 29 29 13 23 21 -2 -16 -18 -4 9 -7 -14 -20 -20 -20 -20 -20 -20 -20 -20 -20 -20 -20 -20 -20 -20 -20 -20 -20 -20 -20 -20 -20 -20 -20
-6 -5 16 7 19 7 13 29 23 47 44 26 33 12 -4 -10 22 -1 -4 -1 -20 -20 -20 -20 -20 -20 -20 -20 -20 -20 -20 -20 -20 -20 -20 -20 -20 -20 -20 -20 -20 -20 -20
3 -20 -20 -18 25 24 20 35 35 30 41 44 37 37 17 37 22 20 -20 -7 1 -9 -20 -20 -20 -20 -20 -20 -20 -20 -20 -20 -20 -20 -20 -20 -20 -20 -20 -20 18 -11 -5
-20 -20 -20 -20 -20 -10 26 33 36 39 39 39 41 33 35 30 21 13 28 7 5 5 -17 -20 -19 -8 -11 -10 -18 -20 -20 -20 -20 -20 -20 -20 -20 2 -20 -20 22 24 -9
-20 -20 -20 -20 -20 -6 -20 -9 15 19 27 30 37 39 27 37 36 9 12 19 17 29 -5 -19 -17 9 15 15 10 12 0 -18 -5 3 -9 -6 4 -10 20 23 17 4 4
-20 -20 -20 -20 -20 -3 -20 -20 -10 6 3 11 21 22 16 22 14 26 34 38 32 33 27 26 -2 -2 13 19 21 22 23 10 9 5 1 6 12 22 15 24 16 22 28
-20 -20 -20 -20 -20 -1 -20 -20 -20 -15 8 3 14 9 4 -1 5 7 11 12 16 21 25 13 -2 -16 12 -5 -15 -4 24 24 20 13 14 20 18 23 24 6 11 22 22
-20 -20 -20 -20 -20 -20 -20 -20 -20 -20 -20 -18 -19 -2 8 3 6 4 -3 -7 -5 16 15 -3 -19 5 -15 -13 -20 -20 -20 17 29 33 30 37 28 26 30 30 39 36 28
-20 -20 -20 -20 -20 -20 -20 -20 -20 -20 -20 -20 -20 -20 -20 0 -17 4 -9 -10 -20 -14 -0 -1 8 -1 -16 -20 -8 -19 -15 10 27 29 37 40 34 46 37 43 42 38 37
-20 -20 -20 -20 -20 -20 -18 -19 -20 -20 -20 -20 -20 -20 -20 -20 -20 7 -11 -20 -20 -20 -20 -15 6 0 -19 -9 9 23 19 15 13 19 12 4 32 35 29 30 21 30 13
-20 -20 -20 -20 -20 -20 2 2 3 -20 -20 -20 -20 -20 -20 -20 -20 -20 -20 -20 -20 -4 2 -20 -20 -20 -20 -18 -8 13 24 19 18 24 21 11 9 13 24 31 25 23 28
-20 -20 -20 -20 -20 -20 2 -2 -1 -20 -20 -20 -20 -20 -20 -20 -20 -20 -20 -20 -20 -20 -20 -18 -13 -14 -10 -16 -9 -20 6 18 19 24 21 22 23 29 29 25 31 23 23
-20 -20 -20 -20 -20 -20 7 10 3 -20 -20 -20 -20 -20 -20 -20 -20 -20 -13 -20 -20 -20 -20 -20 -17 -13 1 -17 -17 -15 -15 -14 -8 15 22 22 27 32 24 32 24 19 30
-20 -20 -20 -20 -20 -20 6 -15 3 -20 -20 -20 -20 -20 -20 -20 -20 -20 -16 -20 -20 -20 -20 -20 -20 -20 -20 -10 8 -6 -17 -16 -6 -2 1 13 15 8 18 35 32 28 34
-20 -20 -20 -20 5 -20 -7 -1 -20 -20 -20 -20 -20 -20 11 -3 10 11 -7 -20 -20 -20 -20 -20 -20 -20 -20 -20 -20 -4 -18 -11 4 -3 7 -1 8 18 5 6 21 30 34

GFSMA_prec_radar_279.txt.gz
Reflectivity
-20 -20 -20 -20 -20 -20 -20 -20 -20 -20 -20 -20 -20 -20 -20 -20 -20 -20 -20 -20 -20 -20 -20 -20 -20 -20 -20 -20 -20 -20 -20 -20 -20 -20 -20 -20 -20 -20 -20 -20 -20 -20 -20
-8 -20 -20 -20 -20 -20 -20 -20 -20 -20 -20 -20 -20 -20 -20 -20 -20 -20 -20 -20 -20 -20 -20 -20 -20 -20 -20 -20 -20 -20 -20 -20 -20 -20 -20 -20 -20 -20 -20 -20 -20 -20 -20
-20 -20 -20 -20 -20 -20 -20 -20 -20 -20 -20 -20 -20 -20 -20 -20 -20 -20 -20 -20 -20 -20 -20 -20 -20 -20 -20 -20 -20 -20 -20 -20 -20 -20 -20 -20 -20 -20 -20 -20 -20 -20 -20
-9 -3 -20 -20 -20 -20 -20 -20 -20 -20 -20 -20 -20 -20 -20 -20 -20 -20 -20 -20 -20 -20 -20 -20 -20 -20 -20 -20 -20 -20 -20 -20 -20 -20 -20 -20 -20 -20 -20 -20 -20 -20 -20
1 -3 -20 -20 -20 -20 -20 -20 -20 -20 -20 -20 -20 -20 -20 -20 -20 -20 -20 -20 -20 -20 -20 -20 -20 -20 -20 -20 -20 -20 -20 -20 -20 -20 -20 -20 -20 -20 -20 -20 -20 -20 -20
24 20 -20 -20 -20 -20 -20 -20 -20 -20 -20 -20 -20 -20 -20 -20 -20 -20 -20 -20 -20 -20 -20 -20 -20 -20 -20 -20 -20 -20 -20 -20 -20 -20 -20 -20 -20 -20 -20 -20 -20 -20 -20
2 12 14 2 -1 -3 -20 -20 -20 -20 -20 -20 -20 -20 -20 -20 -20 -20 -20 -20 -20 -20 -20 -20 -20 -20 -20 -20 -20 -20 -20 -20 -20 -20 -20 -20 -20 -10 -20 -20 -20 -20 -20
7 16 3 11 13 4 -20 -12 2 -20 -20 -20 -18 -20 -17 -20 -20 -20 -20 -20 -20 -20 -20 -20 -20 -20 -20 -20 -20 -20 -20 -20 -20 -20 -20 -20 -20 -20 -6 -20 -20 -20 -20
15 13 18 -5 -14 -18 3 18 8 4 -5 -20 -20 3 9 -20 -20 -20 -20 -20 -20 -20 -20 -20 -20 -20 -20 -20 -20 -20 -20 -20 -20 -20 -20 -20 -20 -20 -20 -20 -20 -20 -20
-19 -2 19 16 12 2 16 4 14 13 19 6 7 -20 -20 -17 -7 -4 -20 -20 -20 -20 -20 -20 -20 -20 -20 -20 -20 -20 -20 -20 -20 -20 -20 -20 -20 -20 -20 -20 -20 -20 -20
-20 -20 -20 7 -8 12 15 9 18 26 41 38 18 20 -20 -14 -18 -4 -16 -20 -20 -20 -20 -20 -20 -20 -20 -20 -20 -20 -20 -20 -20 -20 -20 -20 -20 -20 -20 -20 -20 -20 -20
-20 -20 -20 -10 3 0 -1 -1 4 13 7 12 40 31 33 28 29 19 8 -20 -20 -20 -20 -20 -20 -20 -20 -20 -20 -20 -20 -20 -20 -20 -20 -20 -20 -20 -20 -20 -20 -20 -20
-19 -7 -2 8 6 1 2 -15 18 1 3 3 -13 4 21 33 38 41 24 25 19 -10 4 -20 -20 -20 -20 -20 -20 -20 -20 -20 -20 -20 -20 -20 -20 -20 -20 -20 -20 -20 -20
-20 -20 -19 0 8 -20 -20 -17 1 -18 9 26 23 24 2 8 20 41 37 25 33 33 10 -20 -20 -20 -20 -20 -20 -20 -20 -20 -20 -20 -20 -20 -20 -20 -20 -20 -20 -20 -20
-20 -20 -20 -20 -4 -0 -20 -20 -20 -20 -20 -10 1 20 29 33 29 40 35 33 26 27 21 -14 -1 -4 0 -11 -19 -18 -13 -17 -20 -20 -20 -20 -20 -20 -20 -20 -20 -20 -20
-20 -20 -20 -20 -20 -20 -20 -20 -20 -20 -20 -20 -14 -8 -16 -0 14 19 15 28 20 32 29 -11 5 14 12 19 12 1 -1 -2 7 -16 -15 -19 -20 -20 -20 -20 -20 -20 -20
-20 -20 -20 -20 -20 -20 -20 -20 -20 -20 -20 -20 -20 -20 -20 -3 4 3 8 10 7 8 9 18 18 9 16 17 17 14 25 8 -19 7 4 14 3 -3 -14 -20 -20 -20 -20
-20 -20 -20 -20 -20 -20 -20 -20 -20 -20 -20 -20 -20 -20 -20 -4 3 6 -3 7 6 4 8 19 6 10 -20 10 0 -6 -12 -20 -20 -20 -20 9 -19 -19 -8 -7 3 7 7
-20 -20 -20 -20 -20 -20 -20 -20 -16 -20 -20 -20 -20 -20 -20 -20 6 -2 -11 0 -9 -12 -9 7 9 8 15 14 11 -16 -20 14 16 12 -14 5 -20 -5 -0 6 0 20 3
-20 -20 -20 -20 -20 -11 -20 -20 -20 -20 -20 -20 -20 -20 -20 -20 -20 -8 -20 -20 -20 -16 -14 1 7 9 15 11 15 14 -20 -11 -20 -20 20 16 -3 -20 0 1 15 23 23
-20 -20 -16 -20 -16 -20 -20 -20 -20 -20 -20 -20 -20 -20 -20 -20 -20 -20 -15 -7 -6 -20 -3 -4 -12 6 0 -12 -3 6 -20 -20 -20 -15 -20 15 16 -11 -12 5 23 14 21
-15 -20 -20 -20 -20 -20 -20 -10 1 -20 -20 -20 -20 -20 -20 -20 -20 -20 -20 -20 -19 -1 -20 -20 -3 -2 2 -20 -20 -20 -20 -20 -20 -5 -0 9 20 10 1 8 23 33 32
-20 -20 -20 -20 -20 -20 -20 -20 -20 -20 -20 -20 -20 -20 -20 -20 -20 -15 -20 -20 -20 -20 -20 -20 2 -15 -1 3 4 -20 -20 -17 -20 -15 17 18 15 14 25 24 26 29 23
-20 -20 -20 -20 -20 -20 -20 -20 -20 -20 -20 -20 -20 -20 -20 -14 -10 -1 -17 -9 -20 -12 -3 2 2 0 -2 -0 1 5 5 -20 -19 -14 11 12 16 20 24 15 30 22 29
-20 -20 -20 -20 -20 -20 -20 -20 -20 -20 -20 -18 -20 -20 -8 -20 9 9 -7 -20 -20 -19 12 13 10 6 6 6 5 -3 -19 -20 -20 14 11 19 13 32 26 35 27 32 30
-20 -20 -20 -20 -20 -20 -20 -20 -20 -4 -4 -20 -20 -20 8 -16 -20 5 7 6 2 -20 -20 -20 -17 -1 -20 -6 7 1 10 -9 -18 -4 13 26 9 26 26 32 33 35 32

GFSMA_prec_radar_282.txt.gz
Reflectivity
-20 -20 -20 -20 -20 -20 -20 -20 -20 -20 -20 -20 -20 -20 -20 -20 -20 -20 -20 -20 -20 -20 -20 -20 -20 -20 -20 -20 -20 -20 -20 -20 -20 -20 -20 -20 -20 -20 -20 -20 -20 -20 -20
-20 -20 -20 -20 -20 -20 -20 -20 -20 -20 -20 -20 -20 -20 -20 -20 -20 -20 -20 -20 -20 -20 -20 -20 -20 -20 -20 -20 -20 -20 -20 -20 -20 -20 -20 -20 -20 -20 -20 -20 -20 -20 -20
8 0 -20 -20 -20 -20 -20 -20 -20 -20 -20 -20 -20 -20 -20 -20 -20 -20 -20 -20 -20 -20 -20 -20 -20 -20 -20 -20 -20 -20 -20 -20 -20 -20 -20 -20 -20 -20 -20 -20 -20 -20 -20
-9 1 7 -5 -20 -20 -20 -20 -20 -20 -20 -20 -20 -20 -20 -20 -20 -20 -20 -20 -20 -20 -20 -20 -20 -20 -20 -20 -20 -20 -20 -20 -20 -20 -20 -20 -20 -20 -20 -20 -20 -20 -20
21 25 7 2 10 14 -7 -3 -7 -20 -20 -20 -20 -20 -20 -20 -20 -20 -20 -20 -20 -20 -20 -20 -20 -20 -20 -20 -20 -20 -20 -20 -20 -20 -20 -20 -20 -20 -20 -20 -20 -20 -20
-9 22 17 25 23 21 29 4 -6 -10 3 -20 -20 -20 -20 -20 -20 -20 -20 -20 -20 -20 -20 -20 -20 -20 -20 -20 -20 -20 -20 -20 -20 -20 -20 -20 -20 -20 -20 -20 -20 -20 -20
-20 9 7 14 10 25 18 14 19 16 -1 -14 -4 -20 -20 -20 -20 -20 -20 -20 -20 -20 -20 -20 -20 -20 -20 -20 -20 -20 -20 -20 -20 -20 -20 -20 -20 -20 -20 -2 -20 -20 -20
-20 -11 9 19 21 10 17 21 10 16 18 16 2 -0 -17 -20 -20 -20 -20 -20 -20 -20 -20 -20 -20 -20 -20 -20 -20 -20 -20 -20 -20 -20 -20 -20 -20 -20 -20 -20 1 4 -20
-20 -20 -7 16 10 9 26 22 25 15 14 18 23 15 10 -20 -20 -20 -20 -20 -20 -20 -20 -20 -20 -20 -20 -20 -20 -20 -20 -20 -20 -20 -20 -20 -20 -20 -20 -20 -20 -11 7
-20 -20 -20 -20 2 15 9 12 16 27 27 23 23 24 22 9 19 8 -20 -20 -20 -20 -20 -20 -20 -20 -20 -20 -20 -20 -20 -20 -20 -20 -20 -20 -20 -20 -20 -20 -20 -20 -20
-20 -20 -20 -12 -11 -10 -8 -2 5 15 12 16 15 4 8 25 36 36 36 1 -17 -19 -20 -18 -10 -19 -20 -20 -20 -20 -20 -20 -20 -20 -20 -20 -20 -20 -20 -20 -20 -20 -20
-20 -20 -20 -8 1 -20 -19 13 6 -13 8 -6 25 14 25 31 11 22 19 17 16 -12 4 -5 -5 2 -20 -20 1 -20 -20 -20 -20 -20 -20 -20 -20 -20 -20 -20 -20 -20 -20
-20 -20 -20 -20 -16 -20 -20 -20 -20 -20 -13 5 0 -9 -1 7 14 24 27 8 15 12 17 28 24 13 22 14 8 -20 -20 -20 -20 -20 -20 -20 -20 -20 -20 -20 -20 -20 -20
-20 -20 -20 -20 -20 -20 -20 -20 -20 -20 -20 -19 -8 1 -14 2 23 3 20 24 18 12 15 4 -15 14 32 21 -3 -20 -20 -20 -20 -20 -20 -20 -20 -20 -20 -20 -20 -20 -20
-20 -20 -20 -20 -20 -20 -20 -20 -20 -20 -20 -20 -20 -20 -20 -20 -20 4 9 7 21 12 -3 -11 12 23 13 17 29 32 17 -13 -19 -20 -20 -20 -20 -20 -20 -20 -20 -20 -20
-20 -20 -20 -20 -20 -20 -20 -20 -20 -20 -20 -20 -20 -20 -20 -20 -9 -14 -4 6 8 9 15 -2 7 3 -5 -10 9 4 10 24 14 -3 -11 -20 -20 -20 -16 -16 -18 -20 -20
-20 -20 -20 -20 -20 -20 -20 -20 -20 -20 -20 -20 -20 -20 -20 -20 -20 4 3 -2 1 -0 6 -18 -19 -3 5 11 5 -11 -20 -20 2 24 18 16 2 -10 -7 11 12 11 -1
-20 -20 -20 -20 -20 -20 -20 -20 -20 -20 -20 -20 -20 -20 -20 -20 -20 -20 -4 -20 -19 -20 -4 3 -5 -20 -20 -1 3 16 14 9 1 -2 -20 4 -12 -20 2 -2 2 -20 -5
-20 -20 -20 -20 -20 -20 -20 -20 -20 -20 -20 -20 -20 -20 -20 -20 -20 -20 -20 -20 -20 -20 -20 -16 -1 -1 -14 5 6 -19 -20 -4 -15 -20 -20 2 1 -20 -11 -10 -20 -6 -5
-20 -20 -20 -20 -20 -20 -20 -20 -20 -20 -20 -20 -20 -20 -20 -20 -20 -20 -20 -20 -20 -20 -20 -20 -20 -7 2 -15 5 10 -6 2 3 -1 -20 -20 -0 -8 -16 -4 4 3 -12
-20 -20 -20 -20 -20 -20 -20 -20 -20 -20 -20 -20 -20 -20 -20 -20 -20 -19 -20 -9 -9 -20 -20 -20 -20 -20 -4 -4 3 5 -8 1 1 -0 -5 -20 -20 -17 -14 8 8 15 17
-20 -20 -20 -20 -20 -20 -20 -20 -20 -20 -20 -20 -20 -20 -20 -20 -20 -20 7 -4 -20 -1 5 5 -3 -20 -20 2 1 0 4 -0 -9 -5 1 -10 -20 -20 -20 6 15 10 15
-20 -20 -20 -20 -20 -20 -20 -20 -20 -20 -20 -20 -7 -20 -20 -20 -15 -6 -6 8 -3 6 3 -4 9 6 5 4 4 -13 2 3 -2 -7 5 -18 -20 -20 -20 3 17 14 3
-20 -20 -20 -20 -20 -20 -20 -20 -20 -20 -20 -20 -20 -20 -18 -14 -10 -2 -3 -20 -20 -14 -16 -14 -3 6 -3 -3 -2 -1 -5 -7 -4 -13 -4 -2 -11 -20 -20 -2 21 16 12
-20 -20 -20 -20 -20 -20 -20 -20 -20 -20 -20 -20 -20 -20 -16 -20 7 7 1 2 -0 2 -20 1 -9 -20 -20 -20 -11 12 -13 -20 -18 -14 1 1 8 11 -18 -13 27 29 26
-20 -20 -20 -20 -20 -20 -20 -20 -20 -5 -12 -18 -20 -20 3 -3 1 -6 3 4 8 6 8 2 5 -9 -18 5 6 -15 9 5 -16 -9 11 26 22 26 -4 -1 8 33 33

GFSMA_prec_radar_288.txt.gz
Reflectivity
-9 0 -20 -20 -20 -20 -20 -20 -20 -20 -20 -20 -20 -20 -20 -20 -20 -20 -20 -20 -20 -20 -20 -20 -20 -20 -20 -20 -20 -20 -20 -20 -20 -20 -20 -20 -20 -20 -20 -20 -20 -20 -20
-11 6 -19 -20 -17 -3 -20 -16 7 -20 -20 -20 -20 -20 -20 -20 -20 -20 -20 -20 -20 -20 -20 -20 -20 -20 -20 -20 -20 -20 -20 -20 -20 -20 -20 -20 -20 -20 -20 -20 -20 -20 -20
-18 -20 -8 3 -3 5 1 -18 -20 -20 -20 -20 -20 -20 -20 -20 -20 -20 -20 -20 -20 -20 -20 -20 -20 -20 -20 -20 -20 -20 -20 -20 -20 -20 -20 -20 -20 -20 -20 -20 -20 -20 -20
11 13 1 -17 -20 -20 -6 -20 -0 6 -19 7 3 -18 -1 -20 -20 -20 -20 -20 -20 -20 -20 -20 -20 -20 -20 -20 -20 -20 -20 -20 -20 -20 -20 -20 -20 -20 -20 -20 -20 -20 -20
-17 8 9 6 12 9 -3 -18 -20 8 -6 1 -7 -14 -20 -20 -20 -20 -20 -20 -20 -20 -20 -20 -20 -20 -20 -20 -20 -20 -20 -20 -20 -20 -20 -20 -20 -20 -20 -20 -20 -20 -20
-20 -20 -20 -20 -16 6 19 -3 -9 -20 -20 26 -2 -13 -3 8 -20 -20 -20 -20 -20 -20 -20 -20 -20 -20 -20 -20 -20 -20 -20 -20 -20 -20 -20 -20 -20 -20 -20 -20 -20 -20 -20
-20 -20 -20 -20 -20 -19 -20 -20 11 20 12 18 25 -11 -20 -20 -20 -9 -20 -20 -20 -20 -20 -20 -20 -20 -20 -20 -20 -20 -20 -20 -20 -20 -20 -20 -20 -20 -2 11 11 8 10
-20 -20 -20 -20 -20 -20 -20 -20 -20 -20 -14 -4 31 2 12 -7 -20 -6 -5 24 22 -20 -6 -9 -4 16 -8 -20 -14 -20 -20 -20 -20 -20 -20 -20 -20 -20 -20 -20 -14 1 11
-20 -20 -20 -20 -20 -20 -20 -20 -7 -20 -20 -20 -16 6 10 11 -3 -20 -9 37 21 24 27 31 24 -7 -18 20 20 33 6 15 -19 -14 -20 -20 -20 -20 -20 -20 -20 -20 -20
-20 -20 -20 -20 -20 -20 -20 -20 -20 -20 -20 -20 -20 -16 15 21 18 9 -19 -20 -20 16 7 45 33 -0 28 13 31 42 20 23 25 -1 -12 6 22 17 -20 -20 -20 -20 -20
-20 -20 -20 -20 -20 -20 -20 -20 -20 -20 -20 -9 -20 -20 -20 -20 12 15 11 -20 10 29 23 18 25 39 39 29 42 42 31 31 36 37 20 19 21 -19 -20 -20 -20 -20 -20
-20 -20 -20 -20 -20 -20 -20 -20 -20 -20 -20 -20 -20 -20 -20 -16 -17 12 6 -15 6 -16 -17 16 26 -9 -1 11 16 18 26 22 16 42 34 38 30 11 6 -18 -19 -14 -20
-20 -20 -20 -20 -20 -20 -20 -20 -20 -20 -20 -20 -20 -20 -20 -20 -20 -2 -16 6 4 -20 -20 -20 -20 -14 -20 -20 -8 2 18 27 19 15 20 28 24 12 21 5 -2 1 -18
-20 -20 -20 -20 -20 -20 -20 -20 -20 -20 -20 -20 -20 -20 -20 -20 -20 -20 5 -15 -20 -20 -20 -20 -20 -20 -20 -20 -20 -6 -16 5 -2 16 4 -19 1 14 21 23 -3 -2 9
-20 -20 -20 -20 -20 -20 -20 -20 -20 -20 -20 -20 -20 -20 -20 -20 -20 -20 -20 -20 -6 2 -20 -20 -20 -20 -20 -20 -20 -20 -20 -20 -3 5 -18 -2 -16 -6 15 25 16 7 -20
-20 -20 -20 -20 -20 -20 -20 -20 -20 -20 -20 -20 -20 -20 -20 -20 -20 -20 -20 -20 -20 -14 2 -20 -20 -20 -20 -20 -20 -20 -20 -20 -20 -20 3 10 -4 16 14 15 7 6 -17
-20 -20 -20 -20 -20 -20 -20 -20 -20 -20 -20 -20 -20 -20 -20 -20 -20 -20 -20 -20 -20 -20 -18 -20 -20 -20 -20 -20 -20 -20 -20 -20 -20 -20 -20 -20 -12 3 6 9 3 2 -20
-20 -20 -20 -20 -20 -20 -20 -20 -20 -20 -20 -20 -20 -20 -20 -20 -20 -20 -20 -20 -4 -20 -7 -20 -20 -20 -20 -20 -20 -20 -20 -20 -20 -20 -20 -20 -20 -20 -2 -8 -19 -7 -5
-20 -20 -20 -20 -20 -20 -20 -20 -20 -20 -20 -20 -20 -20 -20 -20 -20 -20 -20 -20 -20 -10 -20 -17 -20 -20 -20 -20 -20 -20 -20 -20 -20 -20 -20 -20 -15 11 13 -7 -20 6 11
-20 -20 -20 -20 -20 -20 -20 -20 -20 -20 -20 -20 -20 -20 -20 -20 -20 -20 -20 -20 -12 -17 -16 -20 -20 -14 -1 -19 -0 -15 -20 -20 -20 -20 -20 -20 -7 -20 -20 -20 -18 -5 0
-20 -20 -20 -20 -20 -20 -20 -20 -20 -20 -20 -20 -20 -20 -20 -20 -20 -20 -20 -20 -12 -20 -10 -20 -20 -20 -20 -20 -18 7 1 -20 -20 -20 -20 -20 -20 -20 -20 -17 15 12 -20
-20 -20 -20 -20 -20 -20 -20 -20 -20 -20 -20 -20 -20 -20 -20 -20 -20 -20 9 11 6 -3 -18 -15 2 -0 -9 -1 1 -0 5 -18 -20 -20 -20 -20 -20 -20 -20 -18 1 -13 0
-20 -20 -20 -20 -20 -20 -20 -20 -20 -20 -20 -20 -20 -20 -20 -20 -20 -20 6 11 1 3 6 5 2 1 5 -11 4 4 -1 2 -3 -20 -20 -20 -20 -20 -16 3 23 -4 16
-20 -20 -20 -20 -20 -20 -20 -20 -20 -20 -20 -20 -20 -20 -20 -20 -20 -3 -6 -20 -4 -14 -17 -19 -17 -0 -5 -7 -18 -10 -15 -12 -17 -20 -14 -20 -20 -7 5 -2 24 15 21
-20 -20 -20 -20 -20 -20 -20 -20 -20 -20 -20 -20 -20 -20 -20 -20 0 5 -11 -1 -20 -20 -20 -20 -17 -18 -20 -20 -20 5 5 2 -3 -2 -18 -20 -20 -20 -20 1 25 32 22
-20 -20 -20 -20 -20 -20 -20 -20 -20 -20 -16 -10 -20 -20 -20 -9 10 -5 -20 -20 -17 -20 -20 -19 -20 -20 -20 -20 -20 -20 4 20 2 3 -10 1 -20 -20 9 -19 19 17 20

GFSMA_prec_radar_291.txt.gz
Reflectivity
-20 -20 -20 -16 -20 -16 -20 -20 -20 -20 -19 -20 -20 -20 -20 -20 -20 -20 -20 -20 -20 -20 -20 -20 -20 -20 -20 -20 -20 -20 -20 -20 -20 -20 -20 -20 -20 -20 -20 -20 -20 -20 -20
-20 -20 -20 -20 -20 -20 -20 -20 -20 -20 -7 4 -14 -20 -20 -20 -20 -20 -20 -20 -20 -20 -20 -20 -20 -20 -20 -20 -20 -20 -20 -20 -20 -20 -20 -20 -20 -20 -20 -20 -20 -20 -20
-19 -3 15 4 -20 -12 -14 -20 -20 -20 -19 -7 9 -20 -20 -20 -20 -20 -20 -20 -20 -20 -20 -20 -20 -20 -20 -20 -20 -20 -20 -20 -20 -20 -20 -20 -20 -20 -20 -20 -20 -20 -20
-20 -19 6 4 10 5 -10 3 -10 -20 -20 -20 -20 -20 -20 -20 7 -20 -20 -20 -20 -20 -20 -20 -20 -20 -20 -20 -20 -20 -20 -20 -20 -20 -20 -20 -20 -20 -20 -20 -20 -20 -20
-20 -20 -20 -20 -20 -20 -12 -6 -7 -17 5 -20 -20 -20 -20 -20 -20 -7 18 -12 -18 -12 -20 -20 -20 -20 -20 -20 -20 -20 -20 -20 -20 -20 -20 -20 -20 -20 -20 -20 -20 -20 -20
-20 -20 -20 -20 -20 -20 -20 -20 -20 -20 -12 -20 -20 -20 -20 -20 -20 -20 -4 -20 -8 -20 8 1 -19 -7 17 17 12 2 -20 -20 -20 -20 -20 -20 -20 -20 -20 -20 -20 -20 -20
-20 -20 -20 -20 -20 -20 -20 -20 -20 -20 -20 -20 -20 -20 -20 -20 -20 -20 -20 -20 -18 18 16 -14 -17 -20 -20 -20 -11 -6 -20 -0 -10 -8 9 -20 -20 -20 -20 -20 6 17 20
-20 -20 -20 -20 -20 -20 -20 -20 -20 -20 -20 -20 -10 -20 -20 -20 -20 -20 -20 -20 -20 -20 8 6 35 36 24 -7 28 29 21 4 -0 5 -10 -20 -8 14 7 -12 -20 -20 -20
-20 -20 -20 -20 -20 -20 -20 -20 -20 -20 -20 -20 -20 -10 -20 -9 -20 -20 -20 -20 -20 -17 -5 1 -4 38 38 29 41 41 34 26 8 23 22 13 16 -1 20 20 19 22 11
-20 -20 -20 -20 -20 -20 -20 -20 -20 -20 -20 -20 -20 -17 -1 3 3 -10 -20 -20 -20 -20 -19 -13 -20 -3 10 28 32 31 35 44 34 35 19 36 25 22 22 11 20 -6 5
-20 -20 -20 -20 -20 -20 -20 -20 -20 -20 -20 -20 -20 -20 -20 -20 9 6 -4 -20 -20 -20 -20 -20 -20 -18 -20 -12 7 9 28 37 36 34 31 34 27 18 36 37 26 32 26
-20 -20 -20 -20 -20 -20 -20 -20 -20 -20 -20 -20 -20 -20 -20 -20 -20 -20 -20 -14 -15 -20 -20 -20 -20 -20 -20 -20 -20 -20 -4 7 3 20 23 26 25 30 19 6 31 43 42
-20 -20 -20 -20 -20 -20 -20 -20 -20 -20 -20 -20 -20 -20 -20 -20 -20 -20 -20 -20 -20 -20 -20 -20 -20 -20 -20 -20 -20 -20 -19 -16 -20 -20 5 20 4 9 -7 15 13 21 29
-20 -20 -20 -20 -20 -20 -20 -20 -20 -20 -20 -20 -20 -20 -20 -20 -20 -20 -20 -20 -20 -20 -20 -20 -20 -20 -20 -20 -20 -20 -20 -20 -20 -20 -20 -19 -20 -20 -20 -20 9 2 22
-20 -20 -20 -20 -20 -20 -20 -20 -20 -20 -20 -20 -20 -20 -20 -20 -20 -20 -20 -20 -20 -20 -20 -20 -20 -20 -20 -20 -20 -20 -20 -20 -20 -20 -20 -20 -20 -20 -20 -20 -19 -20 -20
-20 -20 -20 -20 -20 -20 -20 -20 -20 -20 -20 -20 -20 -20 -20 -20 -20 -20 -20 -20 -20 -20 -4 -20 -20 -20 -20 -20 -20 -20 -20 -20 -20 -20 -20 -20 -20 -20 -20 -20 -20 5 -20
-20 -20 -20 -20 -20 -20 -20 -20 -20 -20 -20 -20 -20 -20 -20 -20 -20 -20 -20 -20 -20 -20 -20 -20 -20 -20 -20 -20 -20 -20 -20 -20 -20 -20 -20 -20 -20 -20 6 0 4 -8 -20
-20 -20 -20 -20 -20 -20 -20 -20 -20 -20 -20 -20 -20 -20 -20 -20 -20 -20 -20 -20 -20 -20 -20 -20 -20 -20 -20 -20 -20 -20 -20 -20 -20 -20 -20 -20 -20 -20 -20 -20 -20 -20 -20
-20 -20 -20 -20 -20 -20 -20 -20 -20 -20 -20 -20 -20 -20 -20 -20 -20 -20 -20 -20 -20 -20 -20 -20 -20 -20 -20 -20 -20 -20 -20 -20 -20 -20 -20 -20 -20 -20 -20 -20 -20 -20 -7
-20 -20 -20 -20 -20 -20 -20 -20 -20 -20 -20 -20 -20 -20 -20 -20 -20 -20 -20 -20 -20 -20 -20 -20 -20 -20 -20 -20 -20 -16 -20 -10 -20 -20 -20 -20 -20 -20 -20 -20 -20 -3 13
-20 -20 -20 -20 -20 -20 -20 -20 -20 -20 -20 -20 -20 -20 -20 -20 -20 -20 -14 -20 -20 -20 1 4 -17 -2 -20 -20 1 1 7 -16 -20 -20 -20 -20 -20 -20 -19 1 -18 -1 9
-20 -20 -20 -20 -20 -20 -20 -20 -20 -20 -20 -20 -20 -20 -20 -20 -20 -20 -3 6 6 2 1 6 5 -10 3 -4 2 5 5 -20 -20 -20 -20 -20 -20 -20 -20 -20 -4 5 10
-20 -20 -20 -20 -20 -20 -20 -20 -20 -20 -20 -20 -20 -20 -20 -20 -20 -20 -12 -20 -20 -20 -20 -20 -18 -20 -20 -20 -11 -1 -20 -19 -20 -20 -19 -18 -20 -20 -20 -20 -13 11 13
-20 -20 -20 -20 -20 -20 -20 -20 -20 -20 -20 -20 -20 -20 -20 -20 -20 -11 -20 -20 -20 -20 -20 -20 -20 -20 -20 -20 -20 -9 1 -9 -12 -20 -11 -13 -20 -20 -20 -20 -20 13 10
-20 -20 -20 -20 -20 -20 -20 -20 -20 -20 -20 -20 -20 -20 -20 -20 -20 -17 -19 -20 -20 -20 -20 -20 -20 -20 -20 -20 -20 -17 -12 4 -5 -11 -20 -10 -20 -20 -20 -20 -15 -4 4
-20 -20 -20 -20 -20 -20 -20 -20 -20 -20 -20 -20 -20 -20 -20 -20 -20 -20 -20 -20 -20 -20 -20 -20 -20 -20 -20 -1 -4 -20 -8 12 -6 -5 -16 4 -10 -20 -4 -19 -20 -20 -20